Weather History for Fallon NAS, NV

Change the Weather History Date:

Wednesday, January 2, 2013

  Actual Average Record
Temperature  
Mean Temperature 14 °F -  
Max Temperature 28 °F 38 °F 63 °F (1946)
Min Temperature 1 °F 16 °F -14 °F (1942)
Degree Days  
Heating Degree Days 50    
Moisture  
Dew Point 8 °F    
Average Humidity 80    
Maximum Humidity 92    
Minimum Humidity 58    
Precipitation  
Precipitation 0.00 in - - ()
Sea Level Pressure  
Sea Level Pressure 30.28 in    
Wind  
Wind Speed 3 mph (NE)    
Max Wind Speed 7 mph    
Max Gust Speed -    
Visibility 9 miles    
Events      
Averages and records for this station are not official NWS values.
T = Trace of Precipitation, MM = Missing Value Source: NWS Daily Summary

Daily Weather History Graph

Daily Weather History Graph

Search for Another Location

Airport:

Trip Planner

Search our weather history database for the weather conditions in past years. The results will help you decide how hot, cold, wet, or windy it might be!

Date:

Astronomy

Jan. 02, 2013 Rise Set
Actual Time 7:15 AM PST 4:43 PM PST
Civil Twilight 6:45 AM PST 5:13 PM PST
Nautical Twilight 6:11 AM PST 5:46 PM PST
Astronomical Twilight 5:38 AM PST 6:19 PM PST
Moon 10:18 PM PST (1/2) 10:01 AM PST (1/2)
Length of Visible Light 10h 28m
Length of Day
9h 28m
Waning Gibbous, 74% of the Moon is Illuminated
Jan 2
Waning Gibbous
Jan 4
Last Quarter
Jan 11
New
Jan 18
First Quarter
Jan 26
Full

Hourly Weather History & Observations

Time (PST) Temp. Windchill Dew Point Humidity Pressure Visibility Wind Dir Wind Speed Gust Speed Precip Events Conditions
12:56 AM 7.0 °F -3.3 °F 3.0 °F 84% 30.32 in 10.0 mi NNE 5.8 mph - N/A   Clear
1:56 AM 6.1 °F - 3.0 °F 87% 30.31 in 10.0 mi Calm Calm - N/A   Clear
2:56 AM 7.0 °F - 1.9 °F 80% 30.32 in 10.0 mi Calm Calm - N/A   Clear
3:56 AM 5.0 °F - 1.0 °F 84% 30.31 in 10.0 mi Calm Calm - N/A   Clear
4:56 AM 3.0 °F - -0.9 °F 84% 30.31 in 9.0 mi Calm Calm - N/A   Clear
5:56 AM 3.0 °F -6.4 °F -0.0 °F 87% 30.31 in 10.0 mi South 4.6 mph - N/A   Clear
6:20 AM 1.4 °F - -2.2 °F 85% 30.44 in 10.0 mi Calm Calm - N/A   Partly Cloudy
6:56 AM 3.0 °F -4.4 °F -0.0 °F 87% 30.30 in 8.0 mi South 3.5 mph - N/A   Scattered Clouds
7:56 AM 3.9 °F -6.9 °F 1.0 °F 88% 30.31 in 7.0 mi ESE 5.8 mph - N/A   Scattered Clouds
8:56 AM 12.0 °F - 9.0 °F 88% 30.31 in 8.0 mi Calm Calm - N/A   Scattered Clouds
9:56 AM 17.1 °F - 14.0 °F 88% 30.30 in 10.0 mi Calm Calm - N/A   Scattered Clouds
10:56 AM 21.9 °F 17.2 °F 15.1 °F 75% 30.30 in 10.0 mi Variable 3.5 mph - N/A   Scattered Clouds
11:56 AM 23.0 °F 18.4 °F 15.1 °F 72% 30.27 in 10.0 mi NE 3.5 mph - N/A   Scattered Clouds
12:56 PM 26.1 °F - 15.1 °F 63% 30.25 in 10.0 mi Calm Calm - N/A   Partly Cloudy
1:56 PM 27.0 °F 23.0 °F 15.1 °F 61% 30.24 in 10.0 mi North 3.5 mph - N/A   Partly Cloudy
2:56 PM 28.0 °F 24.2 °F 15.1 °F 58% 30.24 in 10.0 mi Variable 3.5 mph - N/A   Partly Cloudy
3:56 PM 28.0 °F 21.7 °F 16.0 °F 61% 30.23 in 10.0 mi NE 5.8 mph - N/A   Partly Cloudy
4:56 PM 23.0 °F 18.4 °F 15.1 °F 72% 30.25 in 10.0 mi NNE 3.5 mph - N/A   Partly Cloudy
5:56 PM 19.9 °F 13.4 °F 14.0 °F 78% 30.26 in 10.0 mi NE 4.6 mph - N/A   Clear
6:56 PM 17.1 °F 8.7 °F 12.9 °F 84% 30.26 in 10.0 mi ENE 5.8 mph - N/A   Clear
7:56 PM 14.0 °F 6.5 °F 10.0 °F 84% 30.25 in 10.0 mi East 4.6 mph - N/A   Clear
8:56 PM 12.0 °F 5.9 °F 10.0 °F 92% 30.25 in 8.0 mi NNE 3.5 mph - N/A   Clear
9:56 PM 10.0 °F 1.8 °F 6.1 °F 84% 30.25 in 7.0 mi NNE 4.6 mph - N/A   Clear
10:56 PM 8.1 °F -2.0 °F 5.0 °F 87% 30.24 in 8.0 mi NNE 5.8 mph - N/A   Clear
11:56 PM 7.0 °F -4.5 °F 5.0 °F 92% 30.22 in 9.0 mi NE 6.9 mph - N/A   Clear